EW5790 Weather Reports


time (UTC)temp
C
wind
direction
speed
KPH
gust
KPH
rain 1hr
cm
rain 24hr
cm
rain mn
cm
humidity
%
barometer
mb
20260903101531 20 124 0.0 0.0 0.00 0.00 0.00 1 1016.5
20260903100031 20 124 0.0 0.0 0.00 0.00 0.00 1 1016.6
20260903094544 20 124 0.0 0.0 0.00 0.00 0.00 1 1016.5
20260903093019 21 124 0.0 0.0 0.00 0.00 0.00 1 1016.5
20260903091519 21 127 0.0 0.0 0.00 0.00 0.00 1 1016.4
20260903090011 21 127 0.0 0.0 0.00 0.00 0.00 1 1016.4
20260903084506 21 127 0.0 0.0 0.00 0.00 0.00 1 1016.3
20260903083002 21 127 0.0 0.0 0.00 0.00 0.00 1 1016.2
20260903081605 21 127 0.0 0.0 0.00 0.00 0.00 1 1016.2
20260903080053 21 127 0.0 0.0 0.00 0.00 0.00 1 1016.1
20260903074559 21 127 0.0 0.0 0.00 0.00 0.00 1 1016.2
20260903073047 21 127 0.0 0.0 0.00 0.00 0.00 1 1016.1
20260903071548 21 127 0.0 0.0 0.00 0.00 0.00 1 1016.1
20260903070037 21 127 0.0 0.0 0.00 0.00 0.00 1 1016.2
20260903064532 21 127 0.0 0.0 0.00 0.00 0.00 1 1016.2
20260903063027 21 127 0.0 0.0 0.00 0.00 0.00 1 1016.1
20260903061527 21 127 0.0 0.0 0.00 0.00 0.00 1 1016.1
20260903060018 22 127 0.0 0.0 0.00 0.00 0.00 1 1016.2
20260903054536 22 127 0.0 0.0 0.00 0.00 0.00 1 1016.2
20260903053009 22 127 0.0 0.0 0.00 0.00 0.00 1 1016.3
20260903051507 22 127 0.0 0.0 0.00 0.00 0.00 1 1016.4
20260903050004 22 168 0.0 0.0 0.00 0.00 0.00 1 1016.3
20260903044605 22 168 0.0 0.0 0.00 0.00 0.00 1 1016.2
20260903043053 22 168 0.0 0.0 0.00 0.00 0.00 1 1016.3
20260903041549 22 168 0.0 0.0 0.00 0.00 0.00 1 1016.3
20260903040045 22 168 0.0 0.0 0.00 0.00 0.00 1 1016.3
20260903034540 22 168 0.0 0.0 0.00 0.00 0.00 1 1016.3
20260903033035 23 168 0.0 0.0 0.00 0.00 0.00 1 1016.4
20260903031531 23 168 0.0 0.0 0.00 0.00 0.00 1 1016.4
20260903030037 23 168 0.0 0.0 0.00 0.00 0.00 1 1016.4
20260903024535 23 168 0.0 0.0 0.00 0.00 0.00 1 1016.4
20260903023018 23 168 0.0 0.0 0.00 0.00 0.00 1 1016.4
20260903021513 23 168 0.0 0.0 0.00 0.00 0.00 1 1016.5
20260903020009 24 178 0.0 0.0 0.00 0.00 0.00 1 1016.4
20260903014506 24 184 0.0 0.0 0.00 0.00 0.00 1 1016.3
20260903013002 25 184 0.0 0.0 0.00 0.00 0.00 1 1016.1
20260903011609 25 185 0.0 0.0 0.00 0.00 0.00 7 1015.8
20260903010109 25 188 0.0 0.0 0.00 0.00 0.00 15 1015.6
20260903004557 26 188 0.0 0.0 0.00 0.00 0.00 24 1015.5
20260903003043 27 188 0.0 0.0 0.00 0.00 0.00 36 1015.4
20260903001539 28 188 0.0 0.0 0.00 0.00 0.00 51 1015.3
20260903000035 29 188 0.0 0.0 0.00 0.00 0.00 58 1015.2
20260902234531 31 188 0.0 0.0 0.00 0.00 0.00 63 1015.2
20260902233035 32 188 0.0 0.0 0.00 0.00 0.00 62 1015.2
20260902231525 33 188 0.0 0.0 0.00 0.00 0.00 61 1015.3
20260902230025 35 295 0.0 0.0 0.00 0.00 0.00 55 1015.4
20260902224525 36 294 0.0 0.0 0.00 0.00 0.00 53 1015.4
20260902223018 36 294 0.0 0.0 0.00 0.00 0.00 48 1015.4
20260902221517 36 294 0.0 0.0 0.00 0.00 0.00 47 1015.4
20260902220010 36 300 0.0 0.0 0.00 0.00 0.00 43 1015.5
20260902214505 36 254 0.0 0.0 0.00 0.00 0.00 43 1015.5
20260902213104 36 350 0.0 0.0 0.00 0.00 0.00 43 1015.5
20260902211610 36 277 0.0 0.0 0.00 0.00 0.00 43 1015.7
20260902210056 36 294 0.0 0.0 0.00 0.00 0.00 42 1015.7
20260902204548 36 295 0.0 0.0 0.00 0.00 0.00 43 1015.7
20260902203043 36 349 0.0 0.0 0.00 0.00 0.00 41 1015.9
20260902201543 36 208 0.0 0.0 0.00 0.00 0.00 45 1016.0
20260902200133 36 111 0.0 0.0 0.00 0.00 0.00 43 1016.1
20260902193002 35 300 0.0 0.0 0.00 0.00 0.00 47 1016.6
20260902191559 35 122 0.0 0.0 0.00 0.00 0.00 48 1016.7
20260902190044 35 128 0.0 0.0 0.00 0.00 0.00 50 1016.8
20260902181611 35 294 0.0 0.0 0.00 0.00 0.00 43 1017.1
20260902180057 35 284 0.0 0.0 0.00 0.00 0.00 45 1017.3
20260902174545 35 287 0.0 0.0 0.00 0.00 0.00 49 1017.4
20260902173041 34 289 0.0 0.0 0.00 0.00 0.00 52 1017.6
20260902171538 34 301 0.0 0.0 0.00 0.00 0.00 51 1017.9
20260902170032 33 17 0.0 0.0 0.00 0.00 0.00 54 1018.1
20260902164528 33 257 0.0 0.0 0.00 0.00 0.00 56 1018.2
20260902163027 33 282 0.0 0.0 0.00 0.00 0.00 54 1018.5
20260902161522 33 259 0.0 0.0 0.00 0.00 0.00 56 1018.7
20260902160018 33 336 0.0 0.0 0.00 0.00 0.00 54 1018.8
20260902154513 33 355 0.0 0.0 0.00 0.00 0.00 56 1018.8
20260902153009 32 300 0.0 0.0 0.00 0.00 0.00 57 1018.9
20260902151505 32 288 0.0 0.0 0.00 0.00 0.00 60 1019.0
20260902144557 31 315 0.0 0.0 0.00 0.00 0.00 62 1018.8
20260902143051 30 315 0.0 0.0 0.00 0.00 0.00 62 1018.9
20260902141546 29 96 0.0 0.0 0.00 0.00 0.00 53 1018.9
20260902140043 28 94 0.0 0.0 0.00 0.00 0.00 47 1019.0
20260902134539 27 94 0.0 0.0 0.00 0.00 0.00 33 1019.1
20260902133034 25 94 0.0 0.0 0.00 0.00 0.00 1 1019.2
20260902131530 24 94 0.0 0.0 0.00 0.00 0.00 1 1019.1
20260902130025 23 94 0.0 0.0 0.00 0.00 0.00 1 1019.1
20260902124524 22 94 0.0 0.0 0.00 0.00 0.00 1 1019.2
20260902123018 21 154 0.0 0.0 0.00 0.00 0.00 1 1019.1
20260902121511 21 154 0.0 0.0 0.00 0.00 0.00 1 1019.2
20260902120009 20 154 0.0 0.0 0.00 0.00 0.00 1 1018.9
20260902114506 20 154 0.0 0.0 0.00 0.00 0.00 1 1018.7
20260902113058 19 154 0.0 0.0 0.00 0.00 0.00 1 1018.5
20260902111558 20 154 0.0 0.0 0.00 0.00 0.00 1 1018.3
20260902110050 20 154 0.0 0.0 0.00 0.00 0.00 1 1018.2
20260902104549 20 154 0.0 0.0 0.00 0.00 0.00 1 1017.9
20260902103046 20 154 0.0 0.0 0.00 0.00 0.00 1 1017.9